This is the latest recevied weather packets stored in our database for station/object SP2WPY-13. If no packets are shown the sender has not sent any weather packets the latest 10 day(s).
| Time | Temp. | Humidity | Pressure | Rain* | Wind** | Luminosity | Snow |
|---|---|---|---|---|---|---|---|
| 1777863993 | 15.56° C | 50% | 1010.9 hPa | - | - | - | - |
| 1777863673 | 15.56° C | 49% | 1010.8 hPa | - | - | - | - |
| 1777863400 | 16.11° C | 49% | 1010.7 hPa | - | - | - | - |
| 1777863080 | 16.11° C | 49% | 1010.8 hPa | - | - | - | - |
| 1777862805 | 15.56° C | 49% | 1010.7 hPa | - | - | - | - |
| 1777862486 | 15.56° C | 50% | 1010.8 hPa | - | - | - | - |
| 1777862166 | 15.56° C | 51% | 1010.8 hPa | - | - | - | - |
| 1777861892 | 15.56° C | 51% | 1010.9 hPa | - | - | - | - |
| 1777861572 | 15° C | 52% | 1011 hPa | - | - | - | - |
| 1777861298 | 15.56° C | 51% | 1010.9 hPa | - | - | - | - |
| 1777860978 | 15.56° C | 50% | 1010.9 hPa | - | - | - | - |
| 1777860705 | 16.67° C | 44% | 1010.7 hPa | - | - | - | - |
| 1777860385 | 16.67° C | 44% | 1010.7 hPa | - | - | - | - |
| 1777860065 | 16.67° C | 44% | 1010.6 hPa | - | - | - | - |
| 1777859791 | 16.67° C | 45% | 1010.6 hPa | - | - | - | - |
| 1777859471 | 16.67° C | 45% | 1010.6 hPa | - | - | - | - |
| 1777859198 | 16.67° C | 45% | 1010.6 hPa | - | - | - | - |
| 1777858878 | 16.67° C | 45% | 1010.6 hPa | - | - | - | - |
| 1777858604 | 16.67° C | 45% | 1010.7 hPa | - | - | - | - |
| 1777858284 | 16.67° C | 45% | 1010.8 hPa | - | - | - | - |
| 1777857965 | 16.67° C | 45% | 1010.9 hPa | - | - | - | - |
| 1777857690 | 16.67° C | 45% | 1010.9 hPa | - | - | - | - |
| 1777857371 | 16.67° C | 46% | 1010.9 hPa | - | - | - | - |
| 1777857096 | 16.67° C | 47% | 1011.1 hPa | - | - | - | - |
| 1777856777 | 16.67° C | 47% | 1011.1 hPa | - | - | - | - |
* Rain since midnight (hover to see other rain measurements)
** Current wind speed in m/s (hover to see current wind gust speed)